WESTFORD NEEDLES, 2431

Orbit data source: Space-Track

WESTFORD NEEDLES, 2431 is space debris in LEO originally from a launch on Thu, 09 May 1963 UTC launched from the Air Force Western Test Range (AFWTR). Debris objects in space refer to the collection of defunct objects orbiting the Earth. Examples of debris include non-operational satellites, rocket bodies, and fragments generated from explosions, collisions, or faulty payload assembly.

Loading next visibility...
Identifier
2431, 1963-014AC
Orbit
LEO
Country
Flag of USUS
Related business
Manufacturer
Unknown
Mission
Spacecraft
Bus & Motor
Unknown
Mass
Unknown
Launch date (UTC)
1963-05-09 (63 years ago)
Launch vehicle
Unknown
Launch site
Air Force Western Test Range (AFWTR)
Object type
Payload
Rocket body
Debris
Shape & HBR
Unknown shape, 0.3 m
Radar Cross Section
Medium (>0.1 m² and <1 m²)

Expand to show TLE details & history
Last TLE update: 1 week ago

TLE from 1 week ago
0 WESTFORD NEEDLES
1  2431U 63014AC  26185.42495182  .00000117  00000-0  49545-1 0  9998
2  2431  87.5290 190.8699 0333553 263.4434  92.8353  8.68511911371206
Epoch: 2026-07-04T10:11Z
TLE epoch observation values (Epoch: 2026-07-04T10:11:55.837Z)
Latitude
-0.0001°
Longitude
115.44841°
Altitude
3,648.96 km
Speed
6.297 km/s
True Right ascension
12h 43m 28s
True Declination
0° 00' 00"
Sunlit
Object was in daylight at epoch
Visualization orbit readout
Latitude
Unknown
Longitude
Unknown
Altitude
Unknown
Speed
Unknown
Apparent Right ascension
Unknown
Apparent Declination
Unknown
Sunlit
N/A
Visualization observer readout
Local Sidereal Time
23:59:23
Azimuth
Unknown
Elevation
Unknown
Doppler factor
Unknown
Orbital elements
Apogee altitude
3,950.411 km
Perigee altitude
3,283.628 km
Semi-major axis
9,995.157 km
Eccentricity
0.03336
Inclination
87.529°
RAAN
190.8699°
Arg. of periapsis
263.4434°
True anomaly
96.6422°
Mean anomaly
92.8353°
Eccentric anomaly
94.73988°
Mean motion
2.17199 °/min
Orbital period
165.75 mins
BSTAR
0.049545
Loading maneuver chart data...
Computing Atmospheric mass density...
Loading historical data...
Loading historical data...
Loading historical data...
Loading historical data...
Loading historical data...
Loading historical data...
Loading historical data...

Documentation

Showing up to 5 results
|